Asheville, NC

5:35 AM EST on December 15, 2017 (GMT -0500)
Asheville Regional

Weather History for KAVL - January, 2015

Change the Weather History Date:

Monday, January 12, 2015

  Actual Average Record
Temperature  
Mean Temperature 43 °F 37 °F  
Max Temperature 49 °F 47 °F 70 °F (1898)
Min Temperature 36 °F 26 °F -1 °F (1918)
Degree Days  
Heating Degree Days 22 28  
Month to date heating degree days 365 336  
Since 1 July heating degree days 1919 1997  
Cooling Degree Days 0 0  
Month to date cooling degree days 0 0  
Year to date cooling degree days 0 0  
Moisture  
Dew Point 41 °F    
Average Humidity 96    
Maximum Humidity 100    
Minimum Humidity 92    
Precipitation  
Precipitation 0.23 in 0.12 in 2.32 in (1879)
Month to date precipitation 2.22 1.36  
Year to date precipitation 2.22 1.36  
Snow  
Snow 0.00 in 0.10 in 2.50 in (1893)
Month to date snowfall T 1.4  
Since 1 July snowfall 3.2 2.4  
Snow Depth 0.00 in    
Sea Level Pressure  
Sea Level Pressure 30.24 in    
Wind  
Wind Speed 4 mph (NW)    
Max Wind Speed 18 mph    
Max Gust Speed 21 mph    
Visibility 2 miles    
Events Fog , Rain    
T = Trace of Precipitation, MM = Missing Value Source: NWS Daily Summary

Daily Weather History Graph

Daily Weather History Graph

Search for Another Location

Airport or City:

Trip Planner

Search our weather history database for the weather conditions in past years. The results will help you decide how hot, cold, wet, or windy it might be!

Date:

Astronomy

Jan. 12, 2015 Rise Set
Actual Time 7:39 AM EST 5:37 PM EST
Civil Twilight 7:11 AM EST 6:05 PM EST
Nautical Twilight 6:40 AM EST 6:36 PM EST
Astronomical Twilight 6:09 AM EST 7:07 PM EST
Moon No Moon Rise 11:38 AM EST (1/12)
Length of Visible Light 10h 53m
Length of Day
9h 58m
Waning Gibbous, 57% of the Moon is Illuminated
Jan 12
Waning Gibbous
Jan 13
Last Quarter
Jan 20
New
Jan 26
First Quarter
Feb 3
Full

Hourly Weather History & Observations

Time (EST) Temp. Windchill Dew Point Humidity Pressure Visibility Wind Dir Wind Speed Gust Speed Precip Events Conditions
12:01 AM 36.0 °F - 34.0 °F 93% 30.40 in 2.5 mi Calm Calm - 0.01 in Rain Light Rain
12:23 AM 36.0 °F - 34.0 °F 93% 30.40 in 3.0 mi Calm Calm - 0.03 in Rain Light Rain
12:46 AM 36.0 °F - 34.0 °F 93% 30.39 in 2.5 mi Calm Calm - 0.04 in Rain Light Rain
12:54 AM 36.0 °F - 35.1 °F 97% 30.40 in 3.0 mi Calm Calm - 0.04 in Rain Light Rain
1:08 AM 36.0 °F - 35.1 °F 97% 30.37 in 3.0 mi Calm Calm - 0.00 in   Overcast
1:16 AM 36.0 °F - 35.1 °F 97% 30.37 in 2.0 mi Calm Calm - 0.00 in   Overcast
1:36 AM 36.0 °F - 35.1 °F 97% 30.36 in 3.0 mi Calm Calm - 0.00 in Rain Light Rain
1:54 AM 36.0 °F 33.3 °F 35.1 °F 97% 30.38 in 3.0 mi SSE 3.5 mph - 0.01 in Rain Light Rain
2:04 AM 36.0 °F - 35.1 °F 97% 30.35 in 2.5 mi Calm Calm - 0.00 in Rain Light Rain
2:14 AM 37.0 °F - 35.1 °F 93% 30.35 in 3.0 mi Calm Calm - 0.00 in Rain Light Rain
2:42 AM 37.0 °F 33.3 °F 36.0 °F 96% 30.34 in 2.0 mi ESE 4.6 mph - 0.01 in Rain Rain
2:50 AM 37.4 °F 34.9 °F 37.4 °F 100% 30.34 in 2.5 mi ESE 3.5 mph - 0.02 in Rain Light Rain
2:54 AM 37.9 °F - 37.0 °F 97% 30.35 in 3.0 mi Calm Calm - 0.02 in Rain Light Rain
3:20 AM 37.0 °F - 36.0 °F 96% 30.34 in 2.0 mi Calm Calm - 0.00 in   Overcast
3:46 AM 37.9 °F - 37.0 °F 97% 30.33 in 1.8 mi Calm Calm - 0.00 in Rain Light Rain
3:54 AM 37.9 °F - 37.0 °F 97% 30.33 in 2.0 mi Calm Calm - 0.00 in   Overcast
4:08 AM 37.9 °F - 37.0 °F 97% 30.31 in 2.0 mi Calm Calm - N/A   Overcast
4:14 AM 37.9 °F - 37.0 °F 97% 30.31 in 1.2 mi Calm Calm - N/A   Overcast
4:40 AM 37.9 °F - 37.0 °F 97% 30.29 in 0.8 mi Calm Calm - 0.01 in   Mist
4:54 AM 37.9 °F 35.5 °F 36.0 °F 93% 30.31 in 0.5 mi WSW 3.5 mph - 0.01 in Fog Fog
5:08 AM 37.9 °F 34.4 °F 37.0 °F 97% 30.29 in 0.5 mi SW 4.6 mph - 0.00 in Fog , Rain Light Rain
5:54 AM 39.0 °F - 37.9 °F 96% 30.31 in 0.8 mi Calm Calm - 0.01 in Rain Light Rain
6:09 AM 39.0 °F 36.8 °F 37.9 °F 96% 30.29 in 1.0 mi South 3.5 mph - 0.00 in   Overcast
6:19 AM 37.4 °F 34.9 °F 37.4 °F 100% 30.28 in 0.8 mi SSE 3.5 mph - N/A   Overcast
6:26 AM 39.0 °F - 37.9 °F 96% 30.27 in 0.8 mi Calm Calm - 0.01 in   Overcast
6:37 AM 39.0 °F - 37.9 °F 96% 30.27 in 1.2 mi Calm Calm - 0.01 in   Overcast
6:54 AM 39.0 °F - 37.9 °F 96% 30.29 in 1.5 mi Calm Calm - 0.01 in Rain Light Rain
7:15 AM 39.0 °F - 37.9 °F 96% 30.27 in 1.2 mi Calm Calm - 0.00 in   Overcast
7:54 AM 39.0 °F 34.8 °F 39.0 °F 100% 30.28 in 1.0 mi SSE 5.8 mph - 0.00 in   Overcast
8:04 AM 39.0 °F 36.8 °F 37.9 °F 96% 30.26 in 0.2 mi SSE 3.5 mph - N/A Fog Fog
8:54 AM 41.0 °F 35.2 °F 39.9 °F 96% 30.27 in 0.2 mi SSE 9.2 mph - N/A Fog Fog
9:01 AM 41.0 °F 35.8 °F 39.9 °F 96% 30.25 in 1.2 mi South 8.1 mph - N/A   Overcast
9:09 AM 41.0 °F 35.8 °F 39.9 °F 96% 30.25 in 1.8 mi SSE 8.1 mph - N/A   Overcast
9:17 AM 41.0 °F 38.0 °F 41.0 °F 100% 30.26 in 2.5 mi South 4.6 mph - N/A   Overcast
9:23 AM 41.0 °F - 41.0 °F 100% 30.26 in 0.5 mi Calm Calm - N/A Fog Fog
9:30 AM 42.1 °F 40.2 °F 41.0 °F 96% 30.26 in 1.0 mi South 3.5 mph - N/A   Overcast
9:54 AM 43.0 °F - 42.1 °F 97% 30.28 in 1.0 mi Calm Calm - N/A   Overcast
10:35 AM 43.0 °F - 42.1 °F 97% 30.26 in 1.0 mi Calm Calm - N/A   Overcast
10:54 AM 43.0 °F - 42.1 °F 97% 30.26 in 1.0 mi Calm Calm - N/A   Overcast
11:39 AM 44.6 °F - 42.8 °F 93% 30.21 in 0.5 mi Calm Calm - N/A Fog , Rain Light Rain
11:54 AM 45.0 °F - 44.1 °F 97% 30.22 in 0.5 mi Calm Calm - 0.00 in Fog Fog
12:27 PM 46.0 °F - 45.0 °F 96% 30.19 in 1.5 mi Calm Calm - N/A   Overcast
12:35 PM 46.0 °F - 45.0 °F 96% 30.19 in 0.5 mi Calm Calm - N/A Fog Fog
12:54 PM 46.0 °F - 45.0 °F 96% 30.18 in 0.8 mi Calm Calm - N/A   Overcast
1:17 PM 46.9 °F - 46.0 °F 97% 30.17 in 0.8 mi SSW 3.5 mph - N/A   Overcast
1:38 PM 46.9 °F - 46.0 °F 97% 30.16 in 0.8 mi SSE 3.5 mph - N/A   Overcast
1:54 PM 48.0 °F - 46.9 °F 96% 30.17 in 0.8 mi SW 4.6 mph - 0.00 in Rain Light Rain
2:54 PM 48.9 °F - 46.9 °F 93% 30.13 in 0.8 mi Calm Calm - 0.00 in   Overcast
3:49 PM 48.2 °F - 46.4 °F 93% 30.16 in 1.0 mi North 4.6 mph - 0.04 in Rain Rain
3:54 PM 48.0 °F - 46.9 °F 96% 30.16 in 1.0 mi North 3.5 mph - 0.07 in Rain Heavy Rain
4:54 PM 48.0 °F - 46.9 °F 96% 30.14 in 1.0 mi Calm Calm - 0.07 in Rain Light Rain
5:01 PM 48.0 °F - 46.0 °F 93% 30.13 in 1.5 mi NNW 5.8 mph - 0.00 in Rain Light Rain
5:54 PM 46.9 °F - 46.0 °F 97% 30.14 in 1.2 mi Calm Calm - 0.00 in   Overcast
6:54 PM 46.0 °F 44.8 °F 44.1 °F 93% 30.14 in 1.2 mi NW 3.5 mph - N/A   Overcast
7:10 PM 46.9 °F - 45.0 °F 93% 30.14 in 1.5 mi Calm Calm - N/A   Overcast
7:17 PM 46.0 °F - 46.0 °F 100% 30.14 in 1.0 mi Calm Calm - N/A   Overcast
7:26 PM 45.0 °F - 44.1 °F 97% 30.15 in 0.8 mi Calm Calm - N/A   Overcast
7:39 PM 46.0 °F 43.9 °F 45.0 °F 96% 30.14 in 1.5 mi North 4.6 mph - N/A   Overcast
7:43 PM 46.9 °F - 46.0 °F 97% 30.14 in 3.0 mi North 3.5 mph - N/A   Overcast
7:52 PM 44.6 °F 41.4 °F 44.6 °F 100% 30.13 in 1.8 mi NW 5.8 mph - 0.00 in Rain Light Rain
7:54 PM 45.0 °F 41.2 °F 44.1 °F 97% 30.14 in 1.5 mi NNW 6.9 mph - 0.00 in Rain Light Rain
8:01 PM 46.0 °F 43.1 °F 45.0 °F 96% 30.14 in 3.0 mi NW 5.8 mph - 0.00 in   Overcast
8:13 PM 46.0 °F 43.9 °F 45.0 °F 96% 30.14 in 4.0 mi North 4.6 mph - 0.00 in   Overcast
8:21 PM 46.9 °F - 46.0 °F 97% 30.14 in 1.5 mi NNW 6.9 mph - 0.00 in   Overcast
8:43 PM 46.0 °F 43.9 °F 45.0 °F 96% 30.15 in 1.5 mi NNW 4.6 mph - 0.00 in   Overcast
8:54 PM 46.0 °F 43.1 °F 45.0 °F 96% 30.15 in 1.0 mi North 5.8 mph - 0.00 in   Overcast
8:59 PM 46.9 °F - 45.0 °F 93% 30.16 in 2.5 mi North 5.8 mph - N/A   Overcast
9:31 PM 46.9 °F - 46.0 °F 97% 30.17 in 2.0 mi NNW 9.2 mph - N/A   Overcast
9:52 PM 46.4 °F 41.5 °F 46.4 °F 100% 30.17 in 5.0 mi NNW 10.4 mph - N/A   Overcast
9:54 PM 46.9 °F - 46.0 °F 97% 30.17 in 5.0 mi NNW 9.2 mph - N/A   Overcast
10:34 PM 46.9 °F - 45.0 °F 93% 30.18 in 10.0 mi NNW 11.5 mph - 0.00 in   Overcast
10:42 PM 46.9 °F - 45.0 °F 93% 30.18 in 10.0 mi NNW 12.7 mph - 0.00 in   Overcast
10:54 PM 46.9 °F - 45.0 °F 93% 30.17 in 10.0 mi NNW 15.0 mph - 0.00 in   Overcast
11:38 PM 46.0 °F 41.0 °F 44.1 °F 93% 30.18 in 10.0 mi NNW 10.4 mph - N/A   Overcast
11:54 PM 46.9 °F - 44.1 °F 90% 30.17 in 10.0 mi North 9.2 mph - N/A   Overcast